www.pogodaiklimat.ru

Погода и климат >> Архив погоды >> Португалия >> Виана-ду-Каштелу


ПОГОДА в Виана-ду-Каштелу

  • Прогноз погоды в Виана-ду-Каштелу
  • Монитор погоды в Виана-ду-Каштелу

АРХИВ ПОГОДЫ в Виана-ду-Каштелу

Время (UTC), дата Ветер
(напр.,м/с)
 
Видим.   Явления Облачность Т
(С)
Тd
(С)
f
(%)
Тe
(С)
Тes
(С)
Комфортность P
(гПа)
Po
(гПа)
Тmin
(С)
Tmax
(С)
R
(мм)
R24
(мм)
S
(см)
03 20.05 штиль 0 н/о н/о +9.1 +7.6 90 +8 +8 1014.9 1009.1
06 20.05 штиль 0 н/о н/о +8.8 +7.9 94 +8 +8 1015.5 1009.6 +7.7
09 20.05 14 км н/о +15.8 +9.7 67 1015.9 1010.2
12 20.05 16 км н/о +16.6 +8.8 60 1016.3 1010.6
15 20.05 штиль 0 н/о н/о +17.2 +9.6 61 +17 +17 1015.9 1010.2
18 20.05 14 км н/о +16.2 +11.9 76 1015.7 1010.0 +18.0
21 20.05 штиль 0 н/о н/о +14.0 +11.6 85 +14 +14 1016.6 1010.8
00 21.05 штиль 0 н/о н/о +11.8 +10.9 94 +11 +11 1016.6 1010.8
03 21.05 штиль 0 н/о н/о +13.5 +11.0 85 +13 +13 1016.1 1010.4
06 21.05 штиль 0 н/о н/о +11.0 +9.5 90 +10 +10 1016.5 1010.6 +10.4
09 21.05 18 км н/о +17.8 +11.5 67 1017.3 1011.6
12 21.05 18 км н/о +18.4 +13.7 74 1017.0 1011.4
15 21.05 20 км н/о +18.4 +15.1 81 1017.1 1011.5
18 21.05 штиль 0 20 км 1/1 500 м
[Cu hum Ci fib]
+17.8 +14.1 79 +18 +21 1016.8 1011.1 +19.8
21 21.05 штиль 0 н/о н/о +13.6 +10.5 82 +13 +13 1017.8 1012.0
00 22.05 штиль 0 н/о н/о +13.9 +11.9 88 +13 +13 1018.1 1012.3
03 22.05 штиль 0 н/о н/о +10.5 +10.0 97 +10 +10 1017.1 1011.3
06 22.05 штиль 0 н/о н/о +10.4 +10.0 97 +10 +10 1017.6 1011.7 +10.0
09 22.05 16 км н/о +17.1 +12.8 76 1018.5 1012.8
12 22.05 24 км н/о +17.9 +14.7 82 1019.0 1013.3
15 22.05 24 км н/о +18.5 +14.1 76 1018.3 1012.6
18 22.05 20 км н/о +17.3 +14.0 81 1018.6 1012.9 +19.9
21 22.05 штиль 0 н/о н/о +14.4 +12.9 91 +14 +14 1020.1 1014.3
00 23.05 штиль 0 н/о н/о +13.2 +12.1 93 +13 +13 1020.1 1014.4
03 23.05 штиль 0 н/о н/о +11.3 +11.0 98 +11 +11 1019.6 1013.8
06 23.05 штиль 0 н/о н/о +10.7 +10.4 98 +10 +10 1020.1 1014.2 +10.3
09 23.05 10 км н/о +15.6 +12.8 83 1021.7 1015.9
12 23.05 14 км н/о +17.6 +12.9 74 1021.4 1015.7
15 23.05 18 км н/о +18.5 +12.7 69 1021.2 1015.5
18 23.05 18 км н/о +17.6 +12.5 72 1021.0 1015.3 +19.4
21 23.05 штиль 0 н/о н/о +14.3 +11.7 84 +14 +14 1021.8 1016.0
00 24.05 штиль 0 н/о н/о +12.1 +11.3 95 +11 +11 1021.8 1016.0
03 24.05 штиль 0 н/о н/о +12.1 +10.0 87 +12 +12 1020.7 1014.9
06 24.05 штиль 0 н/о н/о +12.1 +8.7 80 +12 +12 1021.1 1015.3 +11.0
09 24.05 18 км н/о +18.8 +9.2 54 1021.2 1015.5
12 24.05 18 км н/о +23.2 +9.8 43 1020.2 1014.6
15 24.05 18 км н/о +20.5 +13.5 64 1019.1 1013.5
18 24.05 16 км н/о +20.5 +13.0 62 1018.2 1012.6 +24.7
21 24.05 штиль 0 н/о н/о +19.4 +8.9 51 +20 +20 1019.8 1014.2
00 25.05 штиль 0 н/о н/о +16.9 +8.9 59 +17 +17 1020.6 1014.9
03 25.05 штиль 0 н/о н/о +15.2 +8.6 65 +15 +15 1020.9 1015.2
06 25.05 штиль 0 н/о н/о +13.9 +9.0 72 +14 +14 1022.2 1016.4 +12.0
09 25.05 штиль 0
{58}
н/о н/о +20.5 +11.0 54 +22 +22 комфорт 1022.7 1017.0
12 25.05 штиль 0 н/о н/о +26.7 +10.4 36 +27 +27 жарко 1021.2 1015.7
15 25.05 штиль 0 н/о н/о +23.0 +14.1 57 +26 +26 жарко 1020.4 1014.8
18 25.05 штиль 0 н/о н/о +21.6 +14.5 64 +25 +25 комфорт 1020.1 1014.5 +27.4
21 25.05 штиль 0 н/о н/о +20.7 +13.8 65 +23 +23 комфорт 1021.0 1015.4
00 26.05 штиль 0 н/о н/о +17.2 +11.8 71 +17 +17 1021.5 1015.8
03 26.05 штиль 0 н/о н/о +13.9 +10.9 82 +14 +14 1021.1 1015.3
06 26.05 штиль 0 н/о н/о +15.2 +9.7 70 +15 +15 1021.6 1015.8 +12.8
09 26.05 штиль 0 н/о н/о +20.0 +12.7 63 +22 +22 комфорт 1021.5 1015.9
12 26.05 штиль 0 н/о н/о +21.5 +13.9 62 +24 +24 комфорт 1020.5 1014.8
15 26.05 штиль 0 н/о н/о +21.6 +14.5 64 +25 +25 комфорт 1019.4 1013.8
18 26.05 штиль 0 н/о н/о +18.1 +13.9 76 +18 +18 1019.3 1013.6 +22.4
21 26.05 штиль 0 н/о н/о +15.0 +13.1 88 +15 +15 1019.5 1013.8
00 27.05 штиль 0 н/о н/о +15.3 +13.3 88 +15 +15 1019.2 1013.5

 

Местоположение метеостанции Виана-ду-Каштелу (Португалия): широта 41.63 долгота -8.80 высота над уровнем моря 48 м.

В архиве по умолчанию представлена погода в Виана-ду-Каштелу за последнюю неделю. Архивные данные за месяц целиком и за предыдущие месяцы, начиная с января 2011 года, Вы можете получить, выбрав интересующий диапазон дат из раскрывающегося списка и нажав кнопку "Ввод!".


*Определитесь, кто Вы:
робот инопланетянин человек

Внимание! Время в таблицах - всемирное. Для получения местного времени необходимо прибавить поправку, которая равна 0 ч.

Смотрите также архив погоды в соседних городах и на ближайших метеорологических станциях:

Погода в Порту (Португалия) (46 км)
Погода в Виго (Испания) (68 км)
Погода в Оваре (Португалия) (80 км)
Погода в Понтеведре (Испания) (90 км)
Погода в Вила-Реале (Португалия) (99 км)
Погода в Хинсо-де-Лимии (Испания) (102 км)
Погода в Карбальино (Испания) (106 км)
Погода в Оренсе (Испания) (109 км)
Погода в Падроне (Испания) (124 км)
Погода в Визеу (Португалия) (127 км)

Пояснения к столбцам:

Ветер - указаны скорость ветра в м/с - средняя за 10 мин, порывы в срок и между сроками (в фигурных скобках) и направление, откуда дует ветер: С - северный, СВ - северо-восточный, В - восточный, ЮВ - юго-восточный, Ю - южный, ЮЗ - юго-западный, З - западный, СЗ - северо-западный.
Видимость - горизонтальная дальность видимости в метрах или километрах. При видимости от 1 до 10 км при отсутствии осадков обычно наблюдается дымка, при ухудшении видимости до 1 км и менее - туман. В сухую погоду видимость может ухудшаться дымом, пылью или мглою.
Явления - указаны атмосферные явления, наблюдавшиеся в срок или в последний час перед сроком; фигурными скобками обозначены явления, наблюдавшиеся между сроками (за 1-3 часа до срока); квадратными скобками обозначены град или гололедные отложения с указанием их диаметра в мм.
Облачность - указаны через наклонную черту общая и нижняя облачность в баллах и высота нижней границы облаков в метрах; квадратными скобками обозначены формы облаков: Ci - перистые, Cs - перисто-слоистые, Cc - перисто-кучевые, Ac - высококучевые, As - высокослоистые, Sc - слоисто-кучевые, Ns - слоисто-дождевые, Cu - кучевые, Cb - кучево-дождевые. Подробнее классификацию облаков см. в Атласе облаков (PDF).
T - Температура воздуха - температура, измеренная на высоте 2 м над землей.
Td - Температура точки росы - температура, при понижении до которой содержащийся в воздухе водяной пар достигнет насыщения.
f - Относительная влажность воздуха - влажноcть воздуха, измеренная на высоте 2 м над землей.
Te - Эффективная температура - температура, которую ощущает одетый по сезону человек в тени. Характеристика душности погоды. При расчете учитывается влияние влажности воздуха и скорости ветра на теплоощущения человека.
Tes - Эффективная температура на солнце - температура, которую ощущает человек, с поправкой на солнечный нагрев. Характеристика знойности погоды. Зависит от высоты солнца над горизонтом, облачности и скорости ветра. Ночью, в пасмурную погоду, а также при ветре 12 м/с и более поправка равна нулю.
P - Атмосферное давление - приведенное к уровню моря атмосферное давление.
Po - Атмосферное давление - измеренное на уровне метеостанции атмосферное давление.
Tmin - Минимальная температура - минимум температуры воздуха на высоте 2 м над землей.
Tmax - Максимальная температура - максимум температуры воздуха на высоте 2 м над землей.
R - Количество осадков - Количество выпавших осадков за период времени, мм. При наведении курсора мыши на число - период времени, за который выпало указанное количество осадков.
R24 - Количество осадков - Количество выпавших осадков за 24 часа, мм.
S - Снежный покров - Высота снежного покрова, см. При наведении курсора мыши на число - состояние снежного покрова и степень покрытия местности в баллах.